Regional Weather Roundup
Issued by NWS

Home | Current Version | Previous Version | Text Only | Print | Product List | Glossary On
Versions: 1 2 3 4 5 6 7 8 9 10 11 12 13 14 15 16 17 18 19 20 21 22 23 24 25 26 27 28 29 30 31 32 33 34 35 36 37 38 39 40 41 42 43 44 45 46 47 48 49 50
000
ASUS43 KOAX 280410
RWRNE

WEATHER ROUNDUP FOR NEBRASKA
NATIONAL WEATHER SERVICE OMAHA NE
1100 PM CDT MON MAR 27 2017

NOTES: SATELLITE DATA IS BEING USED TO AUGMENT CLOUD COVER ABOVE
       12000 FEET.
       "FAIR" INDICATES FEW OR NO CLOUDS BELOW 12,000 FEET WITH NO
       SIGNIFICANT WEATHER AND/OR OBSTRUCTIONS TO VISIBILITY.

  * THESE STATIONS DO NOT REPORT WEATHER SUCH AS RAIN...SNOW OR FOG.

NEZ001>004-019>022-054>056-280500-
NEBRASKA PANHANDLE

CITY           SKY/WX    TMP DP  RH WIND       PRES   REMARKS
SCOTTSBLUFF    CLOUDY    55  37  50 NE7       29.85R
ALLIANCE       CLOUDY    53  36  52 N9        29.86R
CHADRON        MOCLDY    46  37  71 N7        29.87R
KIMBALL        CLOUDY    53  37  53 S14       29.86R
SIDNEY         CLOUDY    52  34  50 S16       29.86R
$$

NEZ057>060-069>072-079>082-280500-
SOUTHWEST NEBRASKA

CITY           SKY/WX    TMP DP  RH WIND       PRES   REMARKS
NORTH PLATTE   CLEAR     46  40  79 E9        29.92R
IMPERIAL       MOCLDY    51  42  71 SE17      29.89R
LEXINGTON      CLOUDY    45  41  86 SE9       29.96R
MCCOOK         CLEAR     48  40  73 SE13      29.93R
OGALLALA       CLEAR     51  42  72 SE15      29.88S
$$

NEZ005>010-023>029-035>040-094-280500-
NORTH CENTRAL NEBRASKA

CITY           SKY/WX    TMP DP  RH WIND       PRES   REMARKS
VALENTINE      CLEAR     51  40  65 SE13      29.93R
AINSWORTH      CLOUDY    49  42  78 S8        29.94R
BROKEN BOW     MOCLDY    46  41  82 SE9       29.95R
O`NEILL        CLOUDY    49  39  68 SE7       29.97R
ORD            PTCLDY    47  40  76 SE9       29.96R
THEDFORD       CLEAR     48  43  82 SE9       29.93R
$$

NEZ041-046>049-061>064-073>077-083>087-280500-
SOUTH CENTRAL NEBRASKA

CITY           SKY/WX    TMP DP  RH WIND       PRES   REMARKS
GRAND ISLAND   CLOUDY    41  40  96 S7        29.98S
AURORA         CLOUDY    43  41  92 S6        29.99S
HASTINGS       CLOUDY    43  40  89 SE6       29.99S
HEBRON         PTCLDY    47  41  81 E3        30.00S
HOLDREGE       CLOUDY    42  39  92 SE9       29.97R
KEARNEY *      CLOUDY    43  37  81 SE8       29.98S
YORK           CLOUDY    41  39  93 CALM      30.00S
$$

NEZ011>018-030>034-042>045-280500-
NORTHEAST NEBRASKA

CITY           SKY/WX    TMP DP  RH WIND       PRES   REMARKS
NORFOLK        CLEAR     42  37  82 S7        29.99R
ALBION         CLEAR     44  39  82 SE6       29.99R
BLAIR          CLOUDY    45  40  84 CALM      30.01R
FREMONT        CLOUDY    39  39 100 CALM      30.01S
TEKAMAH        CLEAR     40  36  86 E5        30.02R
WAYNE          CLEAR     41  40  95 E3        30.01R
$$

NEZ050>053-065>068-078-088>093-280500-
SOUTHEAST NEBRASKA

CITY           SKY/WX    TMP DP  RH WIND       PRES   REMARKS
LINCOLN        CLOUDY    41  38  89 CALM      30.03R
OMAHA EPPLEY   CLOUDY    45  37  73 E3        30.02R
BEATRICE       CLOUDY    43  40  90 E3        30.01R
FALLS CITY     CLOUDY    47  42  83 W5        30.01R
NEBRASKA CITY  CLOUDY    46  41  81 CALM      30.01S
PLATTSMOUTH    CLOUDY    48  38  69 CALM      30.02R
$$

NEZ044-045-051>053-067-280500-
OMAHA AREA

CITY           SKY/WX    TMP DP  RH WIND       PRES   REMARKS
OMAHA EPPLEY   CLOUDY    45  37  73 E3        30.02R
BLAIR          CLOUDY    45  40  84 CALM      30.01R
FREMONT        CLOUDY    39  39 100 CALM      30.01S
MILLARD        CLOUDY    51  42  71 CALM      30.02R
OFFUTT AFB     CLOUDY    49  40  71 E5        30.02R
PLATTSMOUTH    CLOUDY    48  38  69 CALM      30.02R
WAHOO          FAIR      41  39  93 S3        30.02R
$$



USA.gov is the U.S. government's official web portal to all federal, state and local government web resources and services.